[[{"header":{"parameterUnit":"m.s-1","parameterCategory":2,"la1":30.2991,"la2":30.254,"lo1":-89.0895,"lo2":-89.0444,"dy":0.0017,"dx":0.0017,"nx":28,"ny":28,"refTime":"2023-07-31T03:00:00:Z","depth":"0","parameterNumber":2,"parameterNumberName":"U-component_of_CURRENTS"},"data":[0,0,0,0,0,0,0,0,0,0,0,0,0,0,0,0,0,0,0,0,0,0,0,0,0,0,0,0,0,0,0,0,0,0,0,0,0,0,0,0,0,0,0,0,0,0,0,0,0,0,0,0,0,0,0,0,0,0,-0.4288,-0.4291,0,-0.4497,-0.4498,-0.45,-0.4484,-0.4483,-0.4481,-0.448,-0.4509,-0.4511,-0.4513,0,0,0,0,0,0,0,0,0,0,0,0,0,-0.3791,-0.3799,-0.4287,-0.4292,-0.4296,-0.4497,-0.4499,-0.45,-0.4485,-0.4483,-0.4481,-0.4479,-0.4508,-0.4511,-0.4513,0,0,0,0,0,0,0,0,0,0,0,0,0,-0.3989,-0.3802,-0.4287,-0.4325,-0.4331,-0.4497,-0.4499,-0.45,-0.4485,-0.4483,-0.448,-0.4478,-0.4507,-0.451,-0.4514,-0.4583,0,0,-0.4524,-0.4526,0,0,0,0,0,0,0,0,-0.3977,-0.4005,-0.4315,-0.4322,-0.433,-0.4477,-0.4335,-0.4525,-0.4486,-0.4409,-0.448,-0.4477,-0.4494,-0.4498,-0.4522,-0.4585,-0.4586,-0.4524,-0.4527,-0.4528,-0.4529,0,0,0,0,0,0,0,-0.3964,-0.3995,-0.4354,-0.432,-0.433,-0.4304,-0.4328,-0.437,-0.4446,-0.4416,-0.4419,-0.447,-0.4494,-0.4519,-0.4522,-0.4586,-0.4524,-0.4527,-0.4529,-0.4531,-0.4701,-0.4704,0,0,0,0,0,0,-0.398,-0.3984,-0.4347,-0.4362,-0.4163,-0.4316,-0.4343,-0.4419,-0.445,-0.4459,-0.4472,-0.4469,-0.4514,-0.4518,-0.4523,-0.4544,-0.4528,-0.4531,-0.4533,-0.4699,-0.4702,-0.4704,0,0,0,0,0,0,-0.3969,-0.4012,-0.4339,-0.4187,-0.423,-0.433,-0.4414,-0.4425,-0.4441,-0.4498,-0.4498,-0.4477,-0.4513,-0.4518,-0.4578,-0.4547,-0.4533,-0.4536,-0.4696,-0.47,-0.4703,-0.4625,0,0,0,0,0,0,-0.3954,-0.4007,-0.4017,-0.4191,-0.424,-0.4414,-0.4418,-0.4431,-0.4485,-0.4481,-0.4504,-0.4505,-0.4511,-0.4573,-0.4581,-0.4551,-0.4538,-0.4693,-0.4697,-0.4702,-0.4625,-0.4626,-0.4627,0,0,0,0,0,-0.3936,-0.3969,-0.4016,-0.4058,-0.4269,-0.4417,-0.4436,-0.4486,-0.4487,-0.4489,-0.4534,-0.4503,-0.4607,-0.4579,-0.4588,-0.4557,-0.469,-0.4696,-0.4702,-0.4624,-0.4626,-0.4627,0,0,0,0,0,0,-0.3769,-0.3979,-0.4032,-0.413,-0.4257,-0.4419,-0.4427,-0.4489,-0.4529,-0.4511,-0.4549,-0.4555,-0.4594,-0.4616,-0.4585,-0.4631,-0.4639,-0.4646,-0.4577,-0.4578,-0.4579,-0.4468,-0.4541,0,0,0,0,0,-0.3747,-0.3817,-0.4021,-0.4097,-0.4155,-0.4292,-0.4344,-0.4402,-0.4495,-0.4507,-0.4555,-0.4595,-0.4632,-0.4635,-0.4683,-0.4712,-0.4633,-0.4702,-0.4703,-0.4703,-0.4626,-0.4522,-0.4502,-0.4723,-0.4723,-0.4723,0,0,-0.3718,-0.3833,-0.388,-0.4063,-0.4154,-0.422,-0.431,-0.4402,-0.4433,-0.4506,-0.4539,-0.461,-0.4653,-0.4684,-0.4699,-0.4685,-0.4608,-0.471,-0.4709,-0.463,-0.4525,-0.4501,-0.4481,-0.4726,-0.4726,-0.4725,0,0,-0.3679,-0.3789,-0.382,-0.3916,-0.4067,-0.4154,-0.4184,-0.4358,-0.4391,-0.4493,-0.453,-0.4577,-0.468,-0.4668,-0.468,-0.4721,-0.4634,-0.4763,-0.4643,-0.4545,-0.4522,-0.4501,-0.4377,-0.4346,-0.474,-0.474,-0.474,0,-0.3619,-0.3703,-0.3848,-0.3895,-0.3956,-0.412,-0.4155,-0.4228,-0.4396,-0.4409,-0.4487,-0.459,-0.4648,-0.4605,-0.4633,-0.4704,-0.4631,-0.4623,-0.4532,-0.451,-0.4489,-0.4368,-0.4333,-0.4737,-0.4737,-0.4737,-0.4738,0,-0.3605,-0.3657,-0.3685,-0.3789,-0.3869,-0.3932,-0.4082,-0.4135,-0.4232,-0.431,-0.4355,-0.4462,-0.4493,-0.4548,-0.4607,-0.4499,-0.449,-0.4553,-0.4496,-0.4459,-0.4338,-0.4303,-0.4732,-0.4733,-0.4734,-0.4735,0,0,-0.3466,-0.3642,-0.3632,-0.3665,-0.3814,-0.3888,-0.3924,-0.4004,-0.3999,-0.4144,-0.4126,-0.4233,-0.4286,-0.4303,-0.4377,-0.4307,-0.4149,-0.436,-0.4356,-0.4175,-0.3887,-0.3769,-0.372,-0.4188,-0.4182,-0.4177,-0.3859,0,-0.3385,-0.345,-0.355,-0.3575,-0.3617,-0.375,-0.3777,-0.3859,-0.3948,-0.3975,-0.4039,-0.4082,-0.4191,-0.4223,-0.4158,-0.4213,-0.4053,-0.4225,-0.4,-0.3991,-0.384,-0.3674,-0.3572,-0.3269,-0.3825,-0.3819,-0.3815,0,-0.3258,-0.3341,-0.3369,-0.3481,-0.3508,-0.3537,-0.3585,-0.364,-0.3689,-0.3763,-0.377,-0.3856,-0.3824,-0.3928,-0.381,-0.3921,-0.3837,-0.3834,-0.3824,-0.3691,-0.3806,-0.3403,-0.3185,-0.32,-0.3761,-0.3765,-0.3769,0,-0.3032,-0.3163,-0.3181,-0.3226,-0.3393,-0.3398,-0.3472,-0.3546,-0.3572,-0.3602,-0.3621,-0.361,-0.3628,-0.3551,-0.3587,-0.3683,-0.3412,-0.3557,-0.3305,-0.3299,-0.3145,-0.3133,-0.2846,-0.3286,-0.3287,-0.3288,-0.3289,0,-0.2847,-0.2845,-0.3087,-0.3087,-0.3106,-0.3267,-0.3247,-0.3322,-0.3381,-0.3367,-0.3481,-0.3436,-0.3532,-0.3445,-0.3443,-0.3252,-0.3271,-0.3177,-0.3168,-0.3125,-0.3115,-0.3075,-0.3163,-0.3276,-0.3279,-0.3281,-0.3283,0,-0.2555,-0.2702,-0.2735,-0.2931,-0.2988,-0.2994,-0.3141,-0.3134,-0.3225,-0.3198,-0.3204,-0.3267,-0.3181,-0.3188,-0.3074,-0.3048,-0.2848,-0.2786,-0.2718,-0.2703,-0.255,-0.2641,-0.2286,-0.2223,-0.2474,-0.2468,-0.2464,0,-0.2427,-0.2419,-0.26,-0.2638,-0.2719,-0.2797,-0.2845,-0.3008,-0.3027,-0.3074,-0.3035,-0.296,-0.2867,-0.2661,-0.2603,-0.2441,-0.252,-0.2228,-0.2377,-0.2404,-0.2501,-0.2597,-0.2582,-0.2157,-0.2151,-0.2145,-0.2141,0,-0.2203,-0.225,-0.231,-0.24,-0.2463,-0.2537,-0.2639,-0.2644,-0.2803,-0.2767,-0.2699,-0.2616,-0.2453,-0.2282,-0.21,-0.2021,-0.2225,-0.2106,-0.2141,-0.2167,-0.2238,-0.2224,-0.2522,-0.2092,-0.2097,-0.21,-0.2103,-0.2105,-0.2041,-0.2029,-0.212,-0.2175,-0.2245,-0.2288,-0.2292,-0.2374,-0.235,-0.2283,-0.233,-0.2116,-0.2088,-0.1844,-0.1759,-0.1647,-0.1771,-0.1653,-0.1737,-0.1812,-0.1794,-0.1948,-0.1532,-0.1534,-0.1535,-0.1536,-0.1538,0,-0.1891,-0.1899,-0.1927,-0.2007,-0.2011,-0.211,-0.2163,-0.2115,-0.2025,-0.1876,-0.1761,-0.1624,-0.1487,-0.1482,-0.1441,-0.1359,-0.1387,-0.1338,-0.1482,-0.1468,-0.1569,-0.1604,-0.1175,-0.1175,-0.1175,-0.1175,-0.1175,-0.1175,-0.1818,-0.1781,-0.1797,-0.1779,-0.1831,-0.1805,-0.1799,-0.1675,-0.1536,-0.1248,-0.1074,-0.0971,-0.1154,-0.143,-0.1393,-0.1308,-0.1347,-0.1247,-0.1312,-0.1476,-0.1516,-0.1555,-0.1603,-0.1181,-0.1182,-0.1162,-0.1163,-0.1163]},{"header":{"parameterUnit":"m.s-1","parameterCategory":2,"la1":30.2991,"la2":30.254,"lo1":-89.0895,"lo2":-89.0444,"dy":0.0017,"dx":0.0017,"nx":28,"ny":28,"refTime":"2023-07-31T03:00:00:Z","depth":"0","parameterNumber":3,"parameterNumberName":"V-component_of_CURRENTS"},"data":[0,0,0,0,0,0,0,0,0,0,0,0,0,0,0,0,0,0,0,0,0,0,0,0,0,0,0,0,0,0,0,0,0,0,0,0,0,0,0,0,0,0,0,0,0,0,0,0,0,0,0,0,0,0,0,0,0,0,-0.0653,-0.0653,0,-0.0592,-0.0591,-0.059,-0.05,-0.0499,-0.0498,-0.0497,-0.0359,-0.0356,-0.0354,0,0,0,0,0,0,0,0,0,0,0,0,0,-0.0677,-0.0676,-0.0653,-0.0653,-0.0653,-0.0593,-0.0591,-0.059,-0.05,-0.0499,-0.0498,-0.0497,-0.036,-0.0357,-0.0353,0,0,0,0,0,0,0,0,0,0,0,0,0,-0.064,-0.0676,-0.0653,-0.0606,-0.0602,-0.0593,-0.0591,-0.0589,-0.05,-0.0499,-0.0497,-0.0496,-0.0361,-0.0357,-0.0353,-0.0354,0,0,-0.034,-0.0338,0,0,0,0,0,0,0,0,-0.0642,-0.0638,-0.0613,-0.061,-0.0605,-0.0559,-0.0549,-0.0509,-0.0501,-0.0531,-0.0497,-0.0496,-0.0424,-0.0415,-0.0397,-0.0348,-0.0342,-0.034,-0.0337,-0.0335,-0.0334,0,0,0,0,0,0,0,-0.0644,-0.064,-0.0622,-0.0614,-0.0609,-0.0584,-0.0576,-0.0541,-0.0479,-0.0529,-0.0524,-0.0529,-0.042,-0.0402,-0.0393,-0.034,-0.034,-0.0336,-0.0333,-0.0332,-0.0235,-0.0235,0,0,0,0,0,0,-0.0669,-0.0643,-0.0624,-0.0621,-0.0629,-0.0585,-0.0576,-0.0569,-0.0481,-0.0469,-0.053,-0.0525,-0.041,-0.0398,-0.0388,-0.0382,-0.0335,-0.0331,-0.0329,-0.0235,-0.0235,-0.0235,0,0,0,0,0,0,-0.0669,-0.0667,-0.0627,-0.0637,-0.0631,-0.0587,-0.0579,-0.0569,-0.0537,-0.0485,-0.0469,-0.0509,-0.0408,-0.0394,-0.0361,-0.0376,-0.0329,-0.0326,-0.0235,-0.0235,-0.0235,-0.037,0,0,0,0,0,0,-0.067,-0.0667,-0.0671,-0.0638,-0.0631,-0.0615,-0.0581,-0.0569,-0.0547,-0.0539,-0.0462,-0.0448,-0.0406,-0.0368,-0.0357,-0.0369,-0.0322,-0.0235,-0.0235,-0.0235,-0.0366,-0.0375,-0.0383,0,0,0,0,0,-0.0671,-0.0687,-0.0671,-0.0669,-0.0636,-0.0616,-0.0609,-0.0569,-0.0548,-0.0534,-0.0494,-0.045,-0.0358,-0.0366,-0.0352,-0.0363,-0.0235,-0.0235,-0.0235,-0.0362,-0.0373,-0.0383,0,0,0,0,0,0,-0.0706,-0.068,-0.066,-0.0669,-0.0642,-0.0603,-0.0605,-0.0571,-0.0528,-0.0522,-0.046,-0.0445,-0.0419,-0.0368,-0.0377,-0.033,-0.0285,-0.0282,-0.0386,-0.0395,-0.0404,-0.0425,-0.0319,0,0,0,0,0,-0.0717,-0.0717,-0.0684,-0.0692,-0.0683,-0.0641,-0.063,-0.0597,-0.0562,-0.0541,-0.0497,-0.0446,-0.0411,-0.0386,-0.0344,-0.0326,-0.0245,-0.0317,-0.0325,-0.0333,-0.0338,-0.0265,-0.0268,-0.0235,-0.0235,-0.0235,0,0,-0.0739,-0.0725,-0.0727,-0.07,-0.0679,-0.0676,-0.0628,-0.0613,-0.0606,-0.0535,-0.0519,-0.0477,-0.0412,-0.0396,-0.0377,-0.0354,-0.0288,-0.0333,-0.0341,-0.0341,-0.0265,-0.0269,-0.0272,-0.0234,-0.0234,-0.0234,0,0,-0.0789,-0.0765,-0.078,-0.076,-0.0734,-0.0705,-0.0701,-0.066,-0.0633,-0.0616,-0.0567,-0.0547,-0.0479,-0.0453,-0.0427,-0.0453,-0.0339,-0.0419,-0.048,-0.041,-0.0412,-0.0414,-0.0271,-0.0259,-0.0421,-0.0421,-0.0421,0,-0.0818,-0.0828,-0.0783,-0.079,-0.0795,-0.0722,-0.0742,-0.0702,-0.0656,-0.0654,-0.0622,-0.0556,-0.0514,-0.0499,-0.0511,-0.0477,-0.0382,-0.0457,-0.0424,-0.0424,-0.0423,-0.0277,-0.0262,-0.0428,-0.0427,-0.0426,-0.0426,0,-0.0871,-0.0879,-0.089,-0.0874,-0.0866,-0.087,-0.0822,-0.0802,-0.0768,-0.0737,-0.0713,-0.0658,-0.0622,-0.0601,-0.0568,-0.0545,-0.0456,-0.045,-0.0409,-0.0435,-0.0277,-0.0259,-0.0437,-0.0435,-0.0433,-0.0431,0,0,-0.0919,-0.0932,-0.0929,-0.0952,-0.0913,-0.0917,-0.0908,-0.089,-0.0891,-0.0833,-0.0834,-0.0792,-0.0755,-0.0722,-0.0669,-0.0612,-0.0527,-0.0533,-0.0526,-0.0407,-0.0298,-0.0259,-0.0234,-0.0509,-0.0508,-0.0507,-0.0174,0,-0.0971,-0.1031,-0.1011,-0.1059,-0.1085,-0.1035,-0.1042,-0.1012,-0.0965,-0.0938,-0.087,-0.0844,-0.0796,-0.0783,-0.0724,-0.0576,-0.0491,-0.0613,-0.0274,-0.0263,-0.0242,-0.0218,-0.0168,0.0129,-0.0156,-0.0152,-0.015,0,-0.1,-0.1049,-0.112,-0.1171,-0.1179,-0.1192,-0.1197,-0.1189,-0.1121,-0.1094,-0.1042,-0.0959,-0.0872,-0.0832,-0.0584,-0.0653,-0.0492,-0.0367,-0.0352,-0.0262,-0.0194,0.0104,0.0174,0.0344,-0.0121,-0.0124,-0.0126,0,-0.1036,-0.1109,-0.1183,-0.1195,-0.1236,-0.1266,-0.1279,-0.124,-0.1229,-0.1175,-0.1131,-0.1029,-0.0925,-0.0757,-0.0498,-0.053,-0.0185,-0.0198,0.0004,0.0013,0.0147,0.0163,0.0399,-0.0028,-0.0029,-0.003,-0.0031,0,-0.1066,-0.1119,-0.1215,-0.1243,-0.1342,-0.1342,-0.1392,-0.1385,-0.134,-0.1289,-0.1208,-0.1099,-0.0898,-0.0669,-0.0481,-0.0156,-0.016,0.0013,0.0086,0.0108,0.0115,0.0341,0.0395,-0.0017,-0.002,-0.0022,-0.0025,0,-0.1054,-0.1112,-0.1205,-0.1307,-0.1348,-0.1408,-0.1458,-0.1466,-0.1423,-0.1335,-0.1309,-0.1103,-0.0807,-0.0568,-0.0236,-0.0094,0.0292,0.0281,0.0324,0.0392,0.0665,0.0708,0.1026,0.1128,0.0548,0.055,0.0553,0,-0.1057,-0.1105,-0.1249,-0.1316,-0.1362,-0.1455,-0.1496,-0.1509,-0.1477,-0.1296,-0.1222,-0.0944,-0.0696,-0.0207,0.006,0.0405,0.05,0.0637,0.053,0.0704,0.0809,0.0819,0.088,0.071,0.0713,0.0716,0.0718,0,-0.1073,-0.1116,-0.1195,-0.1333,-0.1411,-0.1493,-0.1531,-0.1517,-0.1449,-0.1309,-0.1041,-0.0834,-0.0387,0.0017,0.0394,0.0577,0.0743,0.0701,0.0873,0.0941,0.0982,0.1107,0.0517,0.0742,0.074,0.0738,0.0737,0.0736,-0.1084,-0.1144,-0.1244,-0.1363,-0.1444,-0.1484,-0.1457,-0.1415,-0.1301,-0.0989,-0.0849,-0.041,-0.0026,0.0507,0.0719,0.1087,0.1001,0.1177,0.1228,0.1233,0.1268,0.0741,0.1018,0.1017,0.1017,0.1016,0.1016,0,-0.1114,-0.1176,-0.1278,-0.1399,-0.1449,-0.149,-0.1432,-0.1297,-0.1056,-0.0783,-0.0452,0.0161,0.0595,0.0949,0.1386,0.16,0.1626,0.1688,0.1731,0.1775,0.1338,0.1275,0.1628,0.1628,0.1628,0.1628,0.1627,0.1627,-0.1136,-0.1226,-0.1277,-0.1376,-0.1431,-0.1344,-0.1256,-0.0996,-0.0735,-0.0187,0.026,0.0543,0.0975,0.1597,0.2019,0.2059,0.225,0.2224,0.2313,0.2014,0.1969,0.1926,0.1881,0.2356,0.2357,0.2735,0.2739,0.2742]}],[{"header":{"parameterUnit":"m.s-1","parameterCategory":2,"la1":30.2991,"la2":30.254,"lo1":-89.0895,"lo2":-89.0444,"dy":0.0017,"dx":0.0017,"nx":28,"ny":28,"refTime":"2023-07-31T03:00:00:Z","depth":"2","parameterNumber":2,"parameterNumberName":"U-component_of_CURRENTS"},"data":[0,0,0,0,0,0,0,0,0,0,0,0,0,0,0,0,0,0,0,0,0,0,0,0,0,0,0,0,0,0,0,0,0,0,0,0,0,0,0,0,0,0,0,0,0,0,0,0,0,0,0,0,0,0,0,0,0,0,-0.2296,-0.2295,0,-0.2253,-0.2254,-0.2254,-0.2229,-0.2228,-0.2227,-0.2226,-0.2354,-0.2358,-0.2362,0,0,0,0,0,0,0,0,0,0,0,0,0,-0.2323,-0.2324,-0.2296,-0.2294,-0.2293,-0.2253,-0.2254,-0.2254,-0.223,-0.2228,-0.2227,-0.2226,-0.2352,-0.2357,-0.2363,0,0,0,0,0,0,0,0,0,0,0,0,0,-0.2309,-0.2324,-0.2296,-0.2268,-0.2264,-0.2253,-0.2254,-0.2254,-0.223,-0.2228,-0.2227,-0.2225,-0.235,-0.2357,-0.2363,-0.2436,0,0,-0.2384,-0.2386,0,0,0,0,0,0,0,0,-0.231,-0.231,-0.2274,-0.227,-0.2266,-0.2236,-0.2309,-0.232,-0.223,-0.2254,-0.2226,-0.2224,-0.2324,-0.2333,-0.2341,-0.2442,-0.2448,-0.2384,-0.2388,-0.2391,-0.2393,0,0,0,0,0,0,0,-0.2311,-0.2311,-0.229,-0.2272,-0.2267,-0.2245,-0.2243,-0.2311,-0.231,-0.2252,-0.2247,-0.2226,-0.2325,-0.2335,-0.2344,-0.245,-0.2384,-0.239,-0.2394,-0.2396,-0.2502,-0.2501,0,0,0,0,0,0,-0.2299,-0.2312,-0.2291,-0.2288,-0.2272,-0.2246,-0.2244,-0.2256,-0.2306,-0.2307,-0.2228,-0.2225,-0.2324,-0.2337,-0.2349,-0.2393,-0.2391,-0.2397,-0.2401,-0.2504,-0.2502,-0.2501,0,0,0,0,0,0,-0.23,-0.2299,-0.2293,-0.2288,-0.2284,-0.2246,-0.226,-0.2255,-0.2278,-0.2283,-0.229,-0.2254,-0.2324,-0.234,-0.2384,-0.2399,-0.24,-0.2406,-0.2505,-0.2503,-0.2502,-0.2511,0,0,0,0,0,0,-0.2302,-0.2301,-0.2315,-0.2289,-0.2284,-0.2299,-0.226,-0.2255,-0.2261,-0.2258,-0.2309,-0.2318,-0.2324,-0.2374,-0.239,-0.2408,-0.2411,-0.2506,-0.2504,-0.2502,-0.2512,-0.251,-0.2508,0,0,0,0,0,-0.2304,-0.2323,-0.2318,-0.2314,-0.2304,-0.2299,-0.2298,-0.227,-0.2264,-0.2286,-0.2288,-0.2317,-0.2371,-0.2379,-0.2399,-0.2419,-0.2507,-0.2505,-0.2502,-0.2513,-0.251,-0.2508,0,0,0,0,0,0,-0.2328,-0.2321,-0.2314,-0.2327,-0.2319,-0.2291,-0.23,-0.2291,-0.2313,-0.2324,-0.2328,-0.2338,-0.2364,-0.2394,-0.2402,-0.2433,-0.2436,-0.2437,-0.2437,-0.2435,-0.2433,-0.2466,-0.2417,0,0,0,0,0,-0.2343,-0.2358,-0.2346,-0.2349,-0.2361,-0.2344,-0.2341,-0.2336,-0.2337,-0.2346,-0.2354,-0.2366,-0.237,-0.2404,-0.2411,-0.2474,-0.2471,-0.2486,-0.2484,-0.2482,-0.2516,-0.2536,-0.254,-0.2493,-0.2493,-0.2493,0,0,-0.2339,-0.2339,-0.2341,-0.2354,-0.2354,-0.2367,-0.2343,-0.2362,-0.2368,-0.2364,-0.2382,-0.2367,-0.2376,-0.2396,-0.2415,-0.2433,-0.2472,-0.2479,-0.2478,-0.2514,-0.2534,-0.2539,-0.2544,-0.2491,-0.2491,-0.2491,0,0,-0.233,-0.2363,-0.2374,-0.2385,-0.2395,-0.2401,-0.2415,-0.2412,-0.2419,-0.2434,-0.2401,-0.2403,-0.2428,-0.2424,-0.2429,-0.2437,-0.2443,-0.2426,-0.248,-0.2498,-0.2503,-0.2509,-0.2426,-0.2424,-0.2448,-0.2448,-0.2448,0,-0.2327,-0.2341,-0.2372,-0.2388,-0.2389,-0.2421,-0.2435,-0.2459,-0.2455,-0.2464,-0.2441,-0.2432,-0.2441,-0.2465,-0.2441,-0.2441,-0.2417,-0.2494,-0.25,-0.2505,-0.2511,-0.2425,-0.2423,-0.2448,-0.2448,-0.2448,-0.2448,0,-0.2318,-0.2341,-0.2355,-0.239,-0.241,-0.2434,-0.2466,-0.2497,-0.2504,-0.25,-0.2513,-0.2501,-0.2496,-0.2483,-0.2472,-0.2504,-0.2454,-0.2478,-0.2517,-0.2517,-0.2424,-0.2422,-0.2448,-0.2448,-0.2448,-0.2448,0,0,-0.2287,-0.2338,-0.2342,-0.236,-0.2421,-0.2434,-0.2486,-0.2526,-0.2555,-0.256,-0.2568,-0.2563,-0.2557,-0.2561,-0.2545,-0.2572,-0.2543,-0.255,-0.2551,-0.2485,-0.2508,-0.2413,-0.24,-0.2578,-0.2579,-0.2581,-0.2399,0,-0.2271,-0.229,-0.2324,-0.2353,-0.2383,-0.2441,-0.2474,-0.2524,-0.2558,-0.2581,-0.2605,-0.2603,-0.259,-0.2581,-0.2608,-0.2564,-0.2552,-0.2586,-0.2506,-0.2502,-0.2436,-0.2402,-0.2238,-0.206,-0.2396,-0.2396,-0.2396,0,-0.2258,-0.2276,-0.2292,-0.2351,-0.237,-0.239,-0.247,-0.2503,-0.2578,-0.2599,-0.2637,-0.2646,-0.2667,-0.2658,-0.2625,-0.2646,-0.2581,-0.2549,-0.2541,-0.2469,-0.2407,-0.213,-0.2044,-0.2392,-0.2392,-0.2392,-0.2393,0,-0.2221,-0.2264,-0.2273,-0.2288,-0.2356,-0.2377,-0.2418,-0.2499,-0.254,-0.2612,-0.2635,-0.2675,-0.2665,-0.2656,-0.2582,-0.2607,-0.2522,-0.2542,-0.2382,-0.2369,-0.2226,-0.22,-0.252,-0.252,-0.2521,-0.2521,-0.2522,0,-0.2198,-0.2203,-0.2254,-0.2257,-0.2282,-0.2344,-0.2387,-0.2442,-0.2522,-0.2557,-0.2634,-0.2645,-0.2676,-0.2635,-0.2581,-0.2451,-0.251,-0.2383,-0.2341,-0.221,-0.2186,-0.2501,-0.2501,-0.2514,-0.2516,-0.2517,-0.2519,0,-0.2134,-0.2171,-0.2186,-0.2244,-0.2263,-0.2275,-0.2354,-0.2391,-0.2476,-0.2523,-0.2546,-0.2608,-0.2538,-0.2517,-0.245,-0.241,-0.2323,-0.2254,-0.2046,-0.1987,-0.2144,-0.2146,-0.2065,-0.2061,-0.2057,-0.2054,-0.2052,0,-0.2085,-0.2091,-0.215,-0.2159,-0.2174,-0.2211,-0.2243,-0.2347,-0.2391,-0.2478,-0.2487,-0.2463,-0.2394,-0.2249,-0.2167,-0.2024,-0.2142,-0.183,-0.1884,-0.2142,-0.2109,-0.2117,-0.2124,-0.1636,-0.163,-0.1626,-0.1622,0,-0.1987,-0.2019,-0.2031,-0.2057,-0.2085,-0.2116,-0.2169,-0.2193,-0.2304,-0.2336,-0.2322,-0.2268,-0.2137,-0.1932,-0.1791,-0.1708,-0.1858,-0.173,-0.2059,-0.1804,-0.1731,-0.1701,-0.1723,-0.158,-0.1584,-0.1587,-0.1589,-0.1591,-0.1899,-0.1889,-0.1922,-0.1931,-0.1969,-0.1977,-0.1926,-0.2013,-0.2025,-0.2017,-0.2091,-0.1953,-0.189,-0.1571,-0.1454,-0.1384,-0.1514,-0.1486,-0.1503,-0.1524,-0.1536,-0.1465,-0.1256,-0.1259,-0.126,-0.1262,-0.1264,0,-0.1775,-0.1782,-0.179,-0.1795,-0.177,-0.184,-0.1838,-0.1747,-0.1681,-0.1754,-0.1712,-0.1481,-0.1328,-0.1266,-0.108,-0.1046,-0.1059,-0.102,-0.1054,-0.1094,-0.113,-0.1126,-0.0735,-0.0733,-0.0732,-0.0731,0,0,-0.1711,-0.1673,-0.168,-0.1586,-0.1581,-0.1428,-0.1368,-0.1306,-0.1281,-0.1191,-0.1165,-0.1268,-0.1235,-0.1007,-0.093,-0.0806,-0.0947,-0.0758,-0.1177,-0.1256,-0.1291,-0.1382,-0.1418,0,0,0,0,0]},{"header":{"parameterUnit":"m.s-1","parameterCategory":2,"la1":30.2991,"la2":30.254,"lo1":-89.0895,"lo2":-89.0444,"dy":0.0017,"dx":0.0017,"nx":28,"ny":28,"refTime":"2023-07-31T03:00:00:Z","depth":"2","parameterNumber":3,"parameterNumberName":"V-component_of_CURRENTS"},"data":[0,0,0,0,0,0,0,0,0,0,0,0,0,0,0,0,0,0,0,0,0,0,0,0,0,0,0,0,0,0,0,0,0,0,0,0,0,0,0,0,0,0,0,0,0,0,0,0,0,0,0,0,0,0,0,0,0,0,-0.0265,-0.0263,0,-0.016,-0.0159,-0.0158,-0.0108,-0.0108,-0.0107,-0.0107,0.0103,0.0108,0.0113,0,0,0,0,0,0,0,0,0,0,0,0,0,-0.0363,-0.0362,-0.0265,-0.0263,-0.0262,-0.016,-0.0159,-0.0158,-0.0108,-0.0108,-0.0107,-0.0107,0.0101,0.0107,0.0114,0,0,0,0,0,0,0,0,0,0,0,0,0,-0.0298,-0.0361,-0.0265,-0.0222,-0.0217,-0.0161,-0.0159,-0.0158,-0.0108,-0.0108,-0.0107,-0.0107,0.0099,0.0106,0.0114,0.0157,0,0,0.0139,0.0143,0,0,0,0,0,0,0,0,-0.0302,-0.0295,-0.023,-0.0225,-0.0219,-0.0144,-0.0117,-0.0046,-0.0108,-0.0153,-0.0107,-0.0107,0.0032,0.0045,0.0058,0.0167,0.0176,0.014,0.0145,0.0148,0.015,0,0,0,0,0,0,0,-0.0307,-0.0299,-0.0226,-0.0228,-0.0222,-0.0188,-0.018,-0.0104,-0.0064,-0.0149,-0.0144,-0.0128,0.0035,0.005,0.0064,0.0179,0.014,0.0147,0.0152,0.0155,0.0317,0.0317,0,0,0,0,0,0,-0.0317,-0.0304,-0.023,-0.0223,-0.0257,-0.0187,-0.0177,-0.0171,-0.0067,-0.0051,-0.0128,-0.0126,0.0036,0.0054,0.0072,0.0126,0.0148,0.0156,0.016,0.0318,0.0317,0.0317,0,0,0,0,0,0,-0.032,-0.0312,-0.0234,-0.0258,-0.0245,-0.0186,-0.0179,-0.0169,-0.0152,-0.0052,-0.0035,-0.0121,0.0037,0.006,0.0127,0.0135,0.0159,0.0166,0.0319,0.0318,0.0317,0.0237,0,0,0,0,0,0,-0.0323,-0.0314,-0.0322,-0.0259,-0.0244,-0.0212,-0.0179,-0.0167,-0.0142,-0.0138,-0.004,-0.0021,0.0039,0.0114,0.0135,0.0146,0.0173,0.0319,0.0318,0.0317,0.0241,0.0234,0.0228,0,0,0,0,0,-0.0327,-0.0339,-0.0323,-0.0314,-0.0255,-0.0212,-0.0203,-0.016,-0.0142,-0.0143,-0.0079,-0.0024,0.0123,0.0121,0.0145,0.0159,0.032,0.0318,0.0317,0.0243,0.0235,0.0228,0,0,0,0,0,0,-0.0381,-0.0332,-0.0315,-0.031,-0.0269,-0.0203,-0.0199,-0.0165,-0.0117,-0.0112,-0.0022,0.0002,0.0062,0.0116,0.0112,0.0199,0.0228,0.0232,0.0163,0.0157,0.0151,0.0132,0.0179,0,0,0,0,0,-0.0398,-0.0398,-0.0339,-0.0336,-0.0321,-0.0262,-0.0241,-0.0209,-0.0153,-0.0133,-0.0062,0.001,0.0076,0.0119,0.0182,0.0238,0.0286,0.0259,0.0253,0.0247,0.0246,0.0304,0.0303,0.0313,0.0313,0.0313,0,0,-0.0413,-0.039,-0.0387,-0.0348,-0.0316,-0.0295,-0.025,-0.0224,-0.0202,-0.0114,-0.0069,-0.0005,0.0084,0.0138,0.017,0.0187,0.0269,0.0246,0.024,0.0243,0.0303,0.0302,0.0301,0.0312,0.0312,0.0313,0,0,-0.0443,-0.0429,-0.0436,-0.0409,-0.0365,-0.0329,-0.0324,-0.026,-0.0233,-0.0178,-0.0116,-0.0053,0.0052,0.0111,0.0158,0.0158,0.0231,0.0176,0.0142,0.0197,0.0197,0.0197,0.0256,0.0262,0.0177,0.0177,0.0176,0,-0.0466,-0.0464,-0.043,-0.0425,-0.0406,-0.0348,-0.0342,-0.0304,-0.0226,-0.02,-0.0176,-0.0036,0.0041,0.0113,0.011,0.0148,0.0186,0.0163,0.0189,0.019,0.0192,0.0253,0.0261,0.0173,0.0173,0.0173,0.0174,0,-0.049,-0.0489,-0.0492,-0.0469,-0.0448,-0.0436,-0.0377,-0.0352,-0.0308,-0.0258,-0.0186,-0.0091,-0.0009,0.0024,0.0075,0.0124,0.0149,0.0171,0.0206,0.0187,0.0251,0.0261,0.0167,0.0168,0.017,0.0171,0,0,-0.0539,-0.0515,-0.0517,-0.0517,-0.0472,-0.0457,-0.0429,-0.0383,-0.0364,-0.0287,-0.0251,-0.0138,-0.0092,-0.0039,0.0031,0.0086,0.0138,0.0126,0.013,0.018,0.026,0.0278,0.0291,0.0158,0.0159,0.016,0.03,0,-0.057,-0.058,-0.0553,-0.0558,-0.0559,-0.0507,-0.0487,-0.0438,-0.0384,-0.0337,-0.0239,-0.0178,-0.0114,-0.0079,-0.0015,0.01,0.016,0.0098,0.0275,0.0281,0.0296,0.0302,0.0289,0.0412,0.031,0.0311,0.0313,0,-0.0606,-0.0608,-0.0625,-0.0608,-0.0604,-0.0596,-0.0563,-0.0535,-0.0457,-0.0414,-0.0341,-0.0265,-0.0164,-0.0118,0.0067,0.0021,0.013,0.0219,0.0227,0.0279,0.0317,0.0417,0.0435,0.033,0.0328,0.0327,0.0326,0,-0.0671,-0.066,-0.0682,-0.0676,-0.0645,-0.0644,-0.0624,-0.0563,-0.0548,-0.0468,-0.0445,-0.0318,-0.0249,-0.0109,0.0081,0.0071,0.0283,0.0296,0.0419,0.0422,0.0466,0.047,0.0421,0.0421,0.042,0.042,0.0419,0,-0.0721,-0.0736,-0.0717,-0.0731,-0.0754,-0.0707,-0.0716,-0.0677,-0.0627,-0.0605,-0.0497,-0.0436,-0.0246,-0.0098,0.0062,0.0275,0.0275,0.0419,0.046,0.0437,0.0437,0.0407,0.0403,0.0425,0.0424,0.0423,0.0422,0,-0.0788,-0.0776,-0.0808,-0.0794,-0.0791,-0.0812,-0.0794,-0.0798,-0.0736,-0.0705,-0.0686,-0.0522,-0.0318,-0.0118,0.0135,0.0256,0.0454,0.0531,0.0493,0.0525,0.056,0.055,0.0673,0.0674,0.0676,0.0677,0.0678,0,-0.0818,-0.0844,-0.0871,-0.0901,-0.0901,-0.0913,-0.0925,-0.087,-0.0861,-0.0738,-0.0724,-0.0532,-0.0357,0.001,0.0256,0.0531,0.0528,0.0654,0.0632,0.0558,0.0586,0.0574,0.0563,0.0667,0.0668,0.0669,0.067,0,-0.0877,-0.0899,-0.0928,-0.0995,-0.1028,-0.105,-0.1046,-0.105,-0.0967,-0.0895,-0.073,-0.0575,-0.0222,0.0099,0.0414,0.0564,0.0601,0.0677,0.0633,0.059,0.0561,0.0585,0.0573,0.0676,0.0676,0.0675,0.0675,0.0675,-0.0923,-0.097,-0.1022,-0.1083,-0.1128,-0.116,-0.1173,-0.1128,-0.1073,-0.0938,-0.0756,-0.0491,-0.0178,0.0288,0.0528,0.0711,0.0704,0.0752,0.0747,0.0742,0.07,0.0674,0.0804,0.0804,0.0804,0.0804,0.0804,0,-0.0963,-0.1019,-0.1095,-0.1166,-0.1229,-0.1226,-0.1236,-0.1204,-0.1113,-0.0926,-0.0725,-0.0353,0.0007,0.0303,0.0625,0.082,0.0794,0.0826,0.0774,0.0767,0.0761,0.0718,0.0828,0.0829,0.0829,0.083,0,0,-0.0987,-0.1069,-0.1115,-0.1226,-0.1275,-0.1304,-0.1308,-0.1235,-0.1093,-0.0871,-0.0658,-0.0384,0.0031,0.0261,0.0523,0.069,0.0662,0.0685,0.0649,0.0551,0.0543,0.0707,0.0631,0,0,0,0,0]}],[{"header":{"parameterUnit":"m.s-1","parameterCategory":2,"la1":30.2991,"la2":30.254,"lo1":-89.0895,"lo2":-89.0444,"dy":0.0017,"dx":0.0017,"nx":28,"ny":28,"refTime":"2023-07-31T03:00:00:Z","depth":"4","parameterNumber":2,"parameterNumberName":"U-component_of_CURRENTS"},"data":[0,0,0,0,0,0,0,0,0,0,0,0,0,0,0,0,0,0,0,0,0,0,0,0,0,0,0,0,0,0,0,0,0,0,0,0,0,0,0,0,0,0,0,0,0,0,0,0,0,0,0,0,0,0,0,0,0,0,-0.1528,-0.1529,0,-0.1567,-0.1567,-0.1568,-0.1598,-0.1598,-0.1598,-0.1598,-0.1655,-0.1656,-0.1658,0,0,0,0,0,0,0,0,0,0,0,0,0,-0.152,-0.1519,-0.1528,-0.1529,-0.1529,-0.1567,-0.1567,-0.1568,-0.1598,-0.1598,-0.1598,-0.1599,-0.1655,-0.1656,-0.1658,0,0,0,0,0,0,0,0,0,0,0,0,0,-0.1538,-0.1519,-0.1528,-0.1548,-0.155,-0.1566,-0.1567,-0.1568,-0.1598,-0.1598,-0.1598,-0.1599,-0.1654,-0.1656,-0.1658,-0.1663,0,0,-0.1664,-0.1665,0,0,0,0,0,0,0,0,-0.1537,-0.1538,-0.1545,-0.1547,-0.1549,-0.1577,-0.1585,-0.16,-0.1598,-0.158,-0.1598,-0.1599,-0.163,-0.1634,-0.1641,-0.1665,-0.1668,-0.1664,-0.1665,-0.1666,-0.1666,0,0,0,0,0,0,0,-0.1535,-0.1537,-0.1544,-0.1545,-0.1548,-0.1568,-0.1571,-0.1588,-0.1604,-0.1582,-0.1584,-0.1587,-0.1631,-0.1639,-0.1643,-0.1669,-0.1664,-0.1666,-0.1667,-0.1668,-0.1733,-0.1733,0,0,0,0,0,0,-0.1527,-0.1535,-0.1543,-0.1545,-0.1543,-0.1568,-0.1571,-0.1568,-0.1603,-0.1608,-0.1587,-0.1588,-0.1636,-0.164,-0.1645,-0.1718,-0.1666,-0.1668,-0.1669,-0.1732,-0.1733,-0.1733,0,0,0,0,0,0,-0.1526,-0.1527,-0.1541,-0.1541,-0.1544,-0.1567,-0.1564,-0.1569,-0.1602,-0.1606,-0.1612,-0.1618,-0.1636,-0.1642,-0.1673,-0.1717,-0.1669,-0.167,-0.1731,-0.1732,-0.1733,-0.1821,0,0,0,0,0,0,-0.1526,-0.1526,-0.1543,-0.154,-0.1544,-0.1563,-0.1564,-0.1569,-0.1601,-0.1604,-0.1634,-0.1638,-0.1637,-0.167,-0.1675,-0.1719,-0.1672,-0.1731,-0.1732,-0.1733,-0.1818,-0.1825,-0.1832,0,0,0,0,0,-0.1525,-0.1545,-0.1543,-0.1545,-0.1558,-0.1563,-0.1568,-0.1586,-0.1603,-0.1618,-0.1636,-0.1639,-0.168,-0.1672,-0.1678,-0.1724,-0.173,-0.1731,-0.1733,-0.1815,-0.1824,-0.1831,0,0,0,0,0,0,-0.1551,-0.1549,-0.1547,-0.1566,-0.1568,-0.1568,-0.1596,-0.1602,-0.163,-0.1644,-0.1649,-0.1654,-0.1697,-0.1689,-0.1681,-0.174,-0.1705,-0.1707,-0.1765,-0.1774,-0.1781,-0.1787,-0.1673,0,0,0,0,0,-0.1561,-0.1575,-0.1568,-0.1583,-0.159,-0.1598,-0.1612,-0.1617,-0.163,-0.1645,-0.1663,-0.1681,-0.1702,-0.1722,-0.1731,-0.1769,-0.1746,-0.1798,-0.1805,-0.1811,-0.1816,-0.1827,-0.1836,-0.1738,-0.1738,-0.1738,0,0,-0.1575,-0.1576,-0.1585,-0.159,-0.16,-0.1621,-0.1609,-0.1632,-0.166,-0.1646,-0.1704,-0.1709,-0.1715,-0.1755,-0.1774,-0.176,-0.1821,-0.1812,-0.1818,-0.182,-0.1829,-0.1839,-0.1848,-0.1738,-0.1738,-0.1738,0,0,-0.1598,-0.1611,-0.1628,-0.1638,-0.1651,-0.1657,-0.1669,-0.1681,-0.1702,-0.1738,-0.174,-0.1768,-0.18,-0.1815,-0.1826,-0.1874,-0.1854,-0.188,-0.1933,-0.1944,-0.1953,-0.196,-0.1922,-0.1925,-0.1889,-0.1889,-0.1889,0,-0.1618,-0.1631,-0.1635,-0.1656,-0.1676,-0.1679,-0.1704,-0.1727,-0.1748,-0.177,-0.1766,-0.1823,-0.1831,-0.1886,-0.1901,-0.1896,-0.1878,-0.1908,-0.1955,-0.1962,-0.1968,-0.1928,-0.193,-0.1894,-0.1893,-0.1893,-0.1892,0,-0.164,-0.1668,-0.1685,-0.1713,-0.1737,-0.1758,-0.178,-0.1813,-0.1839,-0.1854,-0.1909,-0.1915,-0.1944,-0.1958,-0.1951,-0.2005,-0.1967,-0.1962,-0.1941,-0.1984,-0.1937,-0.1938,-0.19,-0.1898,-0.1897,-0.1896,0,0,-0.1632,-0.1688,-0.1696,-0.1722,-0.1768,-0.1783,-0.1846,-0.1886,-0.193,-0.196,-0.2008,-0.2052,-0.2049,-0.2059,-0.2057,-0.2075,-0.2097,-0.2045,-0.2043,-0.2016,-0.2089,-0.1939,-0.1925,-0.2108,-0.2109,-0.211,-0.2031,0,-0.1646,-0.1692,-0.1724,-0.1785,-0.1812,-0.1852,-0.1907,-0.1953,-0.1989,-0.2035,-0.206,-0.21,-0.2091,-0.2107,-0.2128,-0.21,-0.2108,-0.2117,-0.2041,-0.2038,-0.1909,-0.1925,-0.2114,-0.2031,-0.2031,-0.2032,-0.2032,0,-0.1654,-0.1684,-0.1739,-0.1817,-0.1835,-0.1881,-0.1964,-0.201,-0.2079,-0.2107,-0.2155,-0.2163,-0.2196,-0.2178,-0.2171,-0.2177,-0.2143,-0.212,-0.2116,-0.1949,-0.1891,-0.1981,-0.2033,-0.2033,-0.2033,-0.2033,-0.2033,0,-0.1628,-0.1701,-0.1745,-0.177,-0.1856,-0.1901,-0.1952,-0.2032,-0.2073,-0.2148,-0.2175,-0.2217,-0.222,-0.2214,-0.216,-0.2173,-0.2125,-0.2131,-0.1963,-0.195,-0.2072,-0.2065,-0.2132,-0.2132,-0.2132,-0.2132,-0.2132,0,-0.1616,-0.1658,-0.1739,-0.1762,-0.1824,-0.1894,-0.1968,-0.2025,-0.2103,-0.2139,-0.2202,-0.2212,-0.2233,-0.2204,-0.2168,-0.2043,-0.2126,-0.1964,-0.1927,-0.2105,-0.2103,-0.2071,-0.2065,-0.2129,-0.213,-0.213,-0.2131,0,-0.1569,-0.1628,-0.1683,-0.1778,-0.1812,-0.1853,-0.1961,-0.2002,-0.209,-0.2134,-0.2156,-0.2201,-0.2142,-0.2127,-0.2082,-0.2017,-0.194,-0.1881,-0.2036,-0.201,-0.1756,-0.1755,-0.1685,-0.1679,-0.1674,-0.167,-0.1667,0,-0.1535,-0.1562,-0.1672,-0.17,-0.1743,-0.1818,-0.1864,-0.1976,-0.2012,-0.2102,-0.2099,-0.2087,-0.2088,-0.1879,-0.1899,-0.1793,-0.178,-0.1739,-0.1787,-0.1742,-0.1714,-0.1721,-0.1727,-0.1659,-0.1658,-0.1656,-0.1655,0,-0.1462,-0.1523,-0.1565,-0.1622,-0.1677,-0.1728,-0.18,-0.1807,-0.1916,-0.2032,-0.1969,-0.1918,-0.1835,-0.1762,-0.1676,-0.1623,-0.1771,-0.1688,-0.1699,-0.1744,-0.1709,-0.1688,-0.17,-0.1638,-0.1641,-0.1642,-0.1643,0,-0.1403,-0.1416,-0.1481,-0.1514,-0.1583,-0.1584,-0.1644,-0.1661,-0.1703,-0.1813,-0.1783,-0.1765,-0.1807,-0.167,-0.1606,-0.1518,-0.1506,-0.1485,-0.1506,-0.1525,-0.151,-0.1446,-0.1253,0,0,0,0,0,-0.1325,-0.1327,-0.1358,-0.1377,-0.144,-0.1464,-0.1574,-0.1636,-0.1749,-0.1656,-0.1712,-0.1628,-0.1516,-0.1515,-0.1381,-0.1525,-0.1507,-0.1369,-0.1496,-0.1544,-0.1563,-0.1561,0,0,0,0,0,0,-0.1272,-0.1305,-0.1313,-0.125,-0.1225,-0.1264,-0.1316,-0.1394,-0.1358,-0.148,-0.141,-0.1528,-0.142,-0.1527,-0.1336,-0.1336,-0.1386,-0.1384,-0.138,-0.1533,-0.1551,-0.1566,-0.1571,0,0,0,0,0]},{"header":{"parameterUnit":"m.s-1","parameterCategory":2,"la1":30.2991,"la2":30.254,"lo1":-89.0895,"lo2":-89.0444,"dy":0.0017,"dx":0.0017,"nx":28,"ny":28,"refTime":"2023-07-31T03:00:00:Z","depth":"4","parameterNumber":3,"parameterNumberName":"V-component_of_CURRENTS"},"data":[0,0,0,0,0,0,0,0,0,0,0,0,0,0,0,0,0,0,0,0,0,0,0,0,0,0,0,0,0,0,0,0,0,0,0,0,0,0,0,0,0,0,0,0,0,0,0,0,0,0,0,0,0,0,0,0,0,0,-0.0211,-0.0211,0,-0.0174,-0.0174,-0.0173,-0.0145,-0.0145,-0.0144,-0.0144,-0.0072,-0.0071,-0.0069,0,0,0,0,0,0,0,0,0,0,0,0,0,-0.0252,-0.0252,-0.0212,-0.0211,-0.021,-0.0174,-0.0174,-0.0173,-0.0145,-0.0145,-0.0144,-0.0144,-0.0073,-0.0071,-0.0069,0,0,0,0,0,0,0,0,0,0,0,0,0,-0.0228,-0.0252,-0.0212,-0.0191,-0.0188,-0.0174,-0.0174,-0.0173,-0.0145,-0.0145,-0.0144,-0.0144,-0.0074,-0.0071,-0.0069,-0.0067,0,0,-0.0062,-0.0061,0,0,0,0,0,0,0,0,-0.023,-0.0227,-0.0194,-0.0192,-0.0189,-0.0162,-0.0162,-0.0135,-0.0146,-0.0163,-0.0144,-0.0143,-0.0099,-0.0094,-0.0091,-0.0064,-0.006,-0.0062,-0.006,-0.0059,-0.0059,0,0,0,0,0,0,0,-0.0232,-0.0228,-0.0198,-0.0194,-0.0191,-0.0181,-0.0177,-0.0157,-0.0136,-0.0162,-0.0159,-0.0153,-0.0097,-0.0094,-0.0089,-0.0059,-0.0062,-0.006,-0.0058,-0.0057,-0.0006,-0.0006,0,0,0,0,0,0,-0.0234,-0.023,-0.0199,-0.0197,-0.0207,-0.0181,-0.0176,-0.0173,-0.0136,-0.013,-0.0153,-0.0152,-0.0098,-0.0092,-0.0087,-0.0052,-0.0059,-0.0057,-0.0056,-0.0006,-0.0006,-0.0006,0,0,0,0,0,0,-0.0235,-0.0232,-0.0201,-0.0211,-0.0206,-0.018,-0.0177,-0.0173,-0.0168,-0.013,-0.0123,-0.0153,-0.0097,-0.009,-0.0072,-0.005,-0.0056,-0.0054,-0.0006,-0.0006,-0.0006,-0.0002,0,0,0,0,0,0,-0.0236,-0.0232,-0.0239,-0.0212,-0.0206,-0.0196,-0.0177,-0.0172,-0.0164,-0.0161,-0.0127,-0.012,-0.0096,-0.0076,-0.007,-0.0047,-0.0052,-0.0006,-0.0006,-0.0006,-0.0002,-0.0002,-0.0002,0,0,0,0,0,-0.0238,-0.0248,-0.024,-0.0236,-0.0213,-0.0196,-0.0193,-0.0173,-0.0164,-0.0166,-0.0144,-0.0121,-0.0071,-0.0075,-0.0067,-0.0043,-0.0006,-0.0006,-0.0006,-0.0002,-0.0002,-0.0002,0,0,0,0,0,0,-0.0268,-0.0245,-0.0236,-0.0238,-0.0219,-0.0191,-0.0194,-0.0177,-0.0163,-0.0161,-0.0126,-0.0118,-0.0092,-0.0077,-0.0082,-0.0031,-0.0033,-0.0031,-0.0032,-0.0032,-0.0032,-0.003,-0.005,0,0,0,0,0,-0.0278,-0.0283,-0.0252,-0.0257,-0.0249,-0.0223,-0.0216,-0.02,-0.0179,-0.0172,-0.0146,-0.0118,-0.0088,-0.0069,-0.0048,-0.0024,0.0001,-0.0004,-0.0004,-0.0003,0.0001,0.0064,0.0071,-0.0006,-0.0006,-0.0006,0,0,-0.0291,-0.028,-0.0282,-0.0264,-0.0251,-0.0242,-0.0218,-0.0209,-0.0196,-0.0166,-0.0149,-0.0121,-0.0084,-0.0054,-0.004,-0.0037,0.0027,-0.0003,-0.0003,0.0002,0.0064,0.0072,0.0079,-0.0006,-0.0006,-0.0006,0,0,-0.0316,-0.0309,-0.0318,-0.0304,-0.0284,-0.0264,-0.0262,-0.0233,-0.0215,-0.0196,-0.0164,-0.0121,-0.0093,-0.0045,-0.002,-0.0008,0.0021,-0.0008,0.0005,0.0065,0.0073,0.008,0.0103,0.0112,-0.0001,-0.0001,-0.0001,0,-0.0334,-0.0337,-0.0318,-0.0318,-0.0309,-0.0275,-0.0274,-0.0251,-0.0218,-0.0196,-0.0193,-0.0116,-0.008,-0.0016,-0.0008,-0.0002,0.0016,0.0004,0.0068,0.0075,0.0083,0.0105,0.0115,-0.0001,-0.0001,-0.0001,-0.0001,0,-0.0358,-0.036,-0.0364,-0.0352,-0.0341,-0.0337,-0.0297,-0.0279,-0.0253,-0.0218,-0.0162,-0.0109,-0.0059,-0.0034,-0.0014,0.0056,0.0045,0.0058,0.0071,0.0091,0.0113,0.0123,-0.0001,-0.0001,-0.0001,-0.0001,0,0,-0.0394,-0.0383,-0.0386,-0.0385,-0.0358,-0.035,-0.0324,-0.0283,-0.0262,-0.021,-0.017,-0.0089,-0.0054,-0.0024,0.0019,0.0082,0.015,0.0088,0.0091,0.0117,0.0253,0.0227,0.0236,0.0172,0.0175,0.0176,0.0242,0,-0.0418,-0.043,-0.0414,-0.0419,-0.0418,-0.038,-0.0361,-0.0317,-0.0274,-0.0229,-0.0139,-0.0095,-0.0052,-0.0028,0.0047,0.0114,0.0179,0.0129,0.0225,0.0228,0.0209,0.0249,0.0183,0.025,0.0253,0.0254,0.0256,0,-0.0444,-0.0447,-0.0463,-0.0448,-0.0444,-0.0444,-0.0404,-0.0382,-0.0301,-0.0265,-0.0187,-0.0131,-0.003,-0.0002,0.0148,0.0107,0.0183,0.0243,0.0248,0.0232,0.0222,0.0231,0.0275,0.0273,0.0272,0.0271,0.0269,0,-0.0482,-0.0479,-0.0497,-0.0494,-0.0472,-0.0471,-0.0456,-0.0395,-0.0377,-0.0292,-0.027,-0.0144,-0.0096,0.0029,0.0155,0.0149,0.0312,0.0318,0.0372,0.0369,0.037,0.0362,0.0443,0.0443,0.0443,0.0443,0.0442,0,-0.051,-0.0525,-0.0521,-0.0533,-0.0548,-0.0516,-0.052,-0.0481,-0.043,-0.0409,-0.03,-0.0249,-0.0085,0.0026,0.0148,0.0283,0.031,0.0383,0.0397,0.0365,0.0356,0.0376,0.0367,0.0445,0.0444,0.0444,0.0444,0,-0.0552,-0.055,-0.0577,-0.0573,-0.0574,-0.059,-0.0585,-0.0584,-0.0527,-0.0498,-0.0477,-0.0333,-0.0184,-0.002,0.0178,0.0254,0.0399,0.0448,0.038,0.0387,0.0412,0.0403,0.0501,0.0501,0.0501,0.0501,0.0501,0,-0.0571,-0.0591,-0.0623,-0.0652,-0.0659,-0.0675,-0.069,-0.0643,-0.0636,-0.0542,-0.0527,-0.0379,-0.0268,-0.0006,0.0164,0.0385,0.0424,0.0467,0.047,0.0421,0.0425,0.0415,0.0406,0.0501,0.0501,0.0501,0.0501,0,-0.0607,-0.0634,-0.0661,-0.0724,-0.0759,-0.0785,-0.0792,-0.0789,-0.073,-0.0683,-0.0547,-0.0392,-0.0221,-0.0005,0.0164,0.0329,0.0419,0.0468,0.0469,0.0472,0.0421,0.0423,0.0415,0.0501,0.0501,0.0501,0.0501,0,-0.0641,-0.0679,-0.0732,-0.0784,-0.0843,-0.0877,-0.0866,-0.0825,-0.0793,-0.0669,-0.0623,-0.0408,-0.0274,-0.0033,0.013,0.0279,0.0315,0.0339,0.0348,0.035,0.0289,0.0202,0.0238,0,0,0,0,0,-0.0656,-0.0711,-0.0778,-0.084,-0.0908,-0.0932,-0.0929,-0.0903,-0.0838,-0.075,-0.0677,-0.0498,-0.0229,-0.0093,0.0055,0.0101,0.031,0.0272,0.0334,0.05,0.05,0.0453,0,0,0,0,0,0,-0.0671,-0.0743,-0.0786,-0.0883,-0.0935,-0.0994,-0.0995,-0.0946,-0.0865,-0.0771,-0.0606,-0.05,-0.022,-0.0314,0.0046,0.0093,0.0142,0.0416,0.0418,0.05,0.05,0.05,0.0452,0,0,0,0,0]}]]